Overview Statistics Trail Chart Weather Telemetry Raw packets
 

This is the latest recevied weather packets stored in our database for station/object KD0MAC. If no packets are shown the sender has not sent any weather packets the latest 10 day(s).

<< 101 102 103 104 105 106 107 >>
Time Temp. Humidity Pressure Rain* Wind** Luminosity Snow
1787936709 30° C 54% 1019.3 hPa 0 mm - 515 W/m² -
1787936409 29.44° C 56% 1019.3 hPa 0 mm - 509 W/m² -
1787936109 29.44° C 54% 1019.3 hPa 0 mm - 502 W/m² -
1787935808 29.44° C 56% 1019.3 hPa 0 mm - 494 W/m² -
1787935509 28.89° C 56% 1019.6 hPa 0 mm - 485 W/m² -
1787935210 28.89° C 58% 1019.6 hPa 0 mm - 479 W/m² -
1787934909 28.89° C 59% 1019.6 hPa 0 mm - 471 W/m² -
1787934609 28.33° C 58% 1019.6 hPa 0 mm - 463 W/m² -
1787934309 28.33° C 58% 1019.6 hPa 0 mm - 454 W/m² -
1787934009 28.33° C 59% 1019.6 hPa 0 mm - 445 W/m² -
1787933708 27.78° C 59% 1019.6 hPa 0 mm - 438 W/m² -
1787933409 27.78° C 61% 1019.6 hPa 0 mm - 427 W/m² -
1787933108 27.78° C 61% 1019.6 hPa 0 mm - 419 W/m² -
1787932809 27.22° C 58% 1019.6 hPa 0 mm - 409 W/m² -
1787932510 27.22° C 61% 1019.6 hPa 0 mm - 397 W/m² -
1787932208 26.67° C 61% 1019.6 hPa 0 mm - 387 W/m² -
1787931908 26.67° C 63% 1019.6 hPa 0 mm - 376 W/m² -
1787931609 26.67° C 63% 1019.6 hPa 0 mm - 366 W/m² -
1787931309 26.11° C 63% 1019.6 hPa 0 mm - 353 W/m² -
1787931010 26.11° C 64% 1019.6 hPa 0 mm - 364 W/m² -
1787930709 26.11° C 64% 1019.6 hPa 0 mm - 353 W/m² -
1787930408 25.56° C 66% 1019.6 hPa 0 mm - 339 W/m² -
1787930113 25.56° C 65% 1019.6 hPa 0 mm - 327 W/m² -
1787929808 25° C 67% 1019.6 hPa 0 mm - 316 W/m² -
1787929512 25° C 67% 1019.6 hPa 0 mm - 302 W/m² -

* Rain latest hour (hover to see other rain measurements)
** Current wind speed in m/s (hover to see current wind gust speed)